STARLINK-32831, 62860

Orbit data source: Space-Track

STARLINK-32831, 62860 is a payload satellite owned by SpaceX/Seattle (US) in LEO that was launched on Sat, 01 Feb 2025 UTC via an FALCON 9 launch vehicle from the Air Force Western Test Range (AFWTR). Payload-class satellites include a variety of spacecraft equipped with specific instruments for various scientific and technological missions. These include communications satellites like Starlink; space stations such as the ISS; scientific satellites like the Hubble; Earth observation satellites from companies like Planet Labs, Umbra, and HawkEye 360; GPS; miniature CubeSats for education and research; and military/defense satellites.

Loading next visibility...
Identifier
62860, 2025-022G
Orbit
LEO
Country
Flag of USUS
Related business
Manufacturer
SpaceX/Seattle
Mission
Operational Commercial Communications
Bus & Motor
STARLINK V2M, Unknown motor
Mass
730 kg wet, ~700 kg dry
Launch date (UTC)
2025-02-01 (1 year ago)
Launch vehicle
FALCON 9
Launch site
Air Force Western Test Range (AFWTR)
Object type
Payload
Rocket body
Debris
Shape & HBR
Box + 2 Pan, 17.7 m
Radar Cross Section
33.884 m², Large (>1 m²)

Expand to show TLE details & history
Last TLE update: 1 day ago

TLE from 1 day ago
0 STARLINK-32831
1 62860U 25022G   26036.05092328  .00030242  00000-0  10287-2 0  9990
2 62860  53.1561 281.1736 0001103 101.3306 258.7819 15.30212651 56896
Epoch: 2026-02-05T01:13Z
TLE epoch observation values (Epoch: 2026-02-05T01:13:19.771Z)
Latitude
0.00001°
Longitude
127.63252°
Altitude
476.224 km
Speed
7.629 km/s
True Right ascension
18h 44m 41s
True Declination
0° 00' 00"
Sunlit
Object was in daylight at epoch
Visualization orbit readout
Latitude
Unknown
Longitude
Unknown
Altitude
Unknown
Speed
Unknown
Apparent Right ascension
Unknown
Apparent Declination
Unknown
Sunlit
N/A
Visualization observer readout
Local Sidereal Time
06:07:36
Azimuth
Unknown
Elevation
Unknown
Doppler factor
Unknown
Orbital elements
Apogee altitude
476.19 km
Perigee altitude
474.678 km
Semi-major axis
6,853.571 km
Eccentricity
0.00011
Inclination
53.1561°
RAAN
281.1736°
Arg. of periapsis
101.3306°
True anomaly
258.7695°
Mean anomaly
258.7819°
Eccentric anomaly
258.7757°
Mean motion
3.82532 °/min
Orbital period
94.11 mins
BSTAR
0.0010287
Loading maneuver chart data...
Computing Atmospheric mass density...
Loading historical data...
Loading historical data...
Loading historical data...
Loading historical data...
Loading historical data...
Loading historical data...
Loading historical data...

Documentation

Showing up to 5 results
|